{"data":{"norad_id":55487,"intl_designator":"2023-015AQ","name":"STARLINK-5701","alt_names":[],"object_type":"PAYLOAD","status":"ACTIVE","operator":null,"country":"US","launch_date":"2023-02-02","launch_site_code":"AFETR","launch_vehicle":null,"mission":null,"orbit_class":"UNKNOWN","rcs_meters":null,"size_class":null,"mass_kg":null,"dimensions":null,"purposes":["comms"],"wikipedia_slug":null,"has_3d_model":false,"image_url":null,"decayed_at":null,"tle_current":{"epoch":"2026-09-20T22:00:03.000096Z","epoch_age_seconds":64357,"freshness":"FRESH","line1":"1 55487U 23015AQ  26263.91670139  .01295277  00000+0  21683-1 0  9998","line2":"2 55487  43.0044 315.4670 0001409 267.2353  58.8065 15.48166120  5858","mean_motion":15.4816612,"eccentricity":0.0001409,"inclination_deg":43.0044,"raan_deg":315.467,"arg_perigee_deg":267.2353,"mean_anomaly_deg":58.8065,"bstar":0.021683,"rev_number":585,"period_min":93.013274311932,"perigee_km":421.13276114462,"apogee_km":423.04906537058,"semimajor_km":6800.2279132576,"source":"CELESTRAK","updated_at":"2026-09-21T09:00:33.236672Z"}}}